Vertical_Velocity
-1 -1 1 -0 -2 1 1 1 1 0 -1 2 0 -1 -0 -1 -0 -2 1 -1 0 -0 1 -1 0 -0 -1 -0 -1 -0 -0 -0 -0 0 0 -0 -0 -1 -0 0 -0 0 1 -0 -0 -1 -2 -1 -0
1 -2 -0 1 -3 1 3 -0 -2 0 1 1 1 -2 -0 -1 -1 -1 -0 -0 -1 -1 -2 -1 0 -1 0 -2 -1 0 -1 -1 -2 -1 0 0 0 1 1 1 1 1 0 1 0 0 -1 -1 0
-0 -1 -2 -4 -3 6 6 -0 0 1 -0 -1 -0 -1 -1 -1 -2 -0 2 1 -0 -0 0 -0 -0 -0 1 -0 0 0 -1 -0 -0 -1 -2 -1 -1 -1 -1 -1 -1 -2 -0 -1 -0 -0 -0 -1 -0
-1 -4 -3 -8 6 -0 3 -0 1 1 -0 -0 1 0 1 -0 -1 -0 1 1 -1 -0 0 0 0 -0 -1 2 -2 -1 -0 -2 -1 -2 -2 -2 -2 -2 -2 -2 -2 -2 -2 -1 -1 -0 -1 -1 -1
-3 -1 -8 0 6 4 1 0 0 -1 -1 1 1 -0 -1 0 1 -1 -0 -1 1 0 1 -0 -1 -1 -1 1 -1 -1 -0 -1 -2 -2 -2 -2 -1 -1 -2 -2 -1 -1 -0 -1 -0 -1 -1 -1 -1
-6 -4 -7 2 9 2 3 -1 -2 1 1 1 -0 0 1 3 1 -1 -0 -2 1 0 -0 0 -1 -1 -1 -2 -0 -1 -0 1 -2 -2 -1 -2 -2 -2 -2 -2 -2 -1 -2 -2 -1 -0 -1 -1 -1
-4 -1 5 4 9 -4 0 -3 2 -2 1 -0 1 1 6 2 -2 -0 -1 -0 1 1 -2 -1 -1 -1 -0 -1 -1 -1 -2 -0 -0 -1 -1 -2 -2 -2 -2 -2 -2 -2 -1 -2 -1 -1 -1 -1 -1
-3 -2 -6 1 1 7 -0 -1 -2 -1 -1 0 1 1 2 1 1 1 0 2 0 2 0 -1 -0 0 -0 -0 -1 -1 -1 -1 0 -0 -1 -0 0 -1 -1 -1 -0 -1 -0 -1 -1 -1 -1 -1 -2
4 -11 -4 5 1 14 3 -0 -2 2 0 1 -3 2 2 1 -1 1 1 -0 -0 0 -1 -2 -1 -1 1 -1 1 -0 -0 -1 -1 -0 0 -2 -1 -1 -1 -1 -1 -1 -1 -1 -2 -2 0 -0 -1
-8 -5 6 4 7 5 -1 -1 -2 -1 0 -0 -0 3 2 0 -0 -0 1 -0 0 -0 -3 -1 0 -1 -0 -0 -0 -1 -1 -0 -0 -0 -1 -0 -0 -1 -2 -1 -0 -1 -1 -1 -1 -1 -1 -1 -1
-5 -2 4 10 7 -0 -3 -2 0 0 -0 -1 0 2 -0 2 1 -1 2 -1 -0 -0 -0 -1 -1 -1 -0 -0 -2 -0 -1 -1 -1 0 -1 -1 0 -1 -2 -1 -0 -1 -0 1 -1 -1 -0 -1 0
-4 1 4 12 -1 -4 -2 -3 1 -0 0 -2 2 0 1 2 1 2 1 1 1 2 1 2 -1 -2 -1 -1 -0 -1 -1 -2 -1 -1 -0 -1 0 -0 -2 -1 0 -2 -1 -0 -0 -0 -1 -2 -1
-4 6 7 1 -3 -3 -5 1 -5 4 -2 -0 0 1 1 2 2 1 0 -3 0 0 1 1 -0 0 -1 1 1 -1 -0 -0 -1 -1 -0 -1 -0 -1 -1 1 -0 -1 -1 -1 0 -0 -0 -0 -2
5 9 10 -7 -2 -4 -5 -1 -12 10 3 -3 -0 -1 1 2 0 3 2 -1 -0 -2 -2 0 2 2 0 -1 -1 -1 0 -2 0 -0 -1 -0 -1 -0 0 -1 -1 -2 -2 -1 1 0 -0 0 -0
4 -2 7 -3 -0 -1 -2 -6 -7 7 -4 1 -1 -2 -2 3 1 5 2 3 -0 -1 -4 -0 -1 -0 1 1 0 2 0 -1 -1 -0 0 -1 -1 -2 -1 1 -1 -1 0 -0 1 -0 -0 0 -0
-3 2 -1 -2 -2 3 -6 7 -1 3 3 -1 -2 -1 0 2 2 6 6 2 -2 -2 -2 -6 -0 1 -0 2 2 -0 0 2 -1 -1 -1 1 -1 -2 -2 -0 -2 -0 1 -0 -1 1 -1 -1 -1
-10 0 1 6 2 -2 -11 12 -4 5 2 2 -2 1 0 2 1 1 -5 0 -2 -2 -0 -1 -2 -0 0 0 -1 2 0 2 0 -1 0 2 0 -2 -1 -1 -2 -1 1 -0 -0 -1 -0 -3 -1
2 6 9 8 -0 -3 -10 7 -4 7 -1 3 4 5 -2 1 3 -7 -6 -4 -1 -3 1 3 -0 2 1 -3 -2 2 2 1 1 1 1 -0 -1 -1 -2 -2 -1 0 -1 1 -0 -1 0 -0 1
5 -0 0 -4 -6 -5 -4 4 2 7 1 4 1 -0 1 -1 -8 -4 -6 -3 1 3 -4 0 1 9 -4 -2 -0 -1 3 -2 1 -0 -0 2 2 -1 -2 -1 -3 -0 -1 -2 0 -1 0 0 -1
0 -1 -2 -5 -0 -4 -8 4 9 -0 2 -3 -5 2 6 3 -6 -7 -2 -6 -5 -0 2 -1 -1 3 5 0 4 -5 1 0 1 -2 1 2 3 4 1 0 1 2 -1 1 1 -0 -2 0 -1
2 5 -0 -2 -4 -2 -1 9 6 -4 -3 -9 3 4 1 -2 -4 -5 -3 -4 -4 -2 -2 1 0 0 0 3 0 -3 -1 4 -0 7 2 6 0 0 -2 1 3 3 2 -1 -1 -0 0 1 1
3 2 -1 -4 -2 -1 -0 3 5 -5 -6 -3 2 2 -1 -2 0 -1 -4 -4 -3 -3 -1 0 -1 1 -0 -4 -1 5 3 -3 5 6 0 -1 3 -0 3 0 -0 3 7 5 -1 -2 0 0 -1
-0 -0 -1 -3 -2 -1 -2 6 -3 -8 -5 -3 1 -1 -2 -3 1 -2 -2 -1 -1 -3 -2 1 1 -1 -3 -2 -0 -2 0 4 5 -1 5 -3 -0 1 3 -0 -2 3 6 3 3 -1 1 2 -3
-1 -1 -2 -1 -3 -1 -2 2 -4 -5 -2 -2 -1 -2 0 -1 -3 -1 -0 -2 -1 -1 -0 0 1 2 -0 -1 0 2 0 4 1 10 6 3 0 -3 2 1 2 1 1 -0 1 1 4 4 2
-1 0 -0 -0 -3 1 -0 -1 -0 -1 2 -2 -5 -2 -1 -1 -2 -1 0 -0 -1 -2 -1 0 -0 -6 -2 -2 -3 -1 3 -0 1 6 4 5 5 5 7 2 1 3 3 -1 4 1 1 4 1
2 1 0 1 -2 3 0 -2 4 -0 0 -5 -3 -2 0 -2 -3 -1 -1 -2 -1 -2 -4 -2 -2 -1 1 -2 -2 -4 -1 -1 0 5 7 10 6 7 4 2 2 6 6 8 4 3 0 5 3
3 1 -1 1 0 3 0 -1 -1 -0 -4 -6 1 4 -0 -4 1 1 -1 -3 -3 -1 -2 -3 -0 1 -1 -2 -2 -1 0 -1 2 -1 -1 5 9 10 8 8 1 5 6 7 7 3 4 -1 -1
-0 -0 2 2 -3 -0 1 -2 0 -3 3 3 -1 -2 -3 -0 2 1 1 -1 1 1 2 -2 -2 -2 -3 -1 -1 -1 -3 -1 -0 -0 2 0 1 5 7 6 4 2 4 4 4 7 5 -2 1
-0 -0 -2 -2 -1 1 0 -1 -2 -1 2 1 -0 -0 1 -2 -2 -1 -4 -3 -4 -4 1 1 1 1 2 3 2 -1 4 4 3 1 3 2 3 5 2 4 5 3 2 4 3 5 4 -1 7
-1 -2 -0 1 5 2 -1 -0 -4 -1 1 -2 -2 -4 -1 1 1 -2 -1 -4 -5 -4 -2 4 5 0 -2 1 2 4 1 7 9 6 7 3 2 1 1 3 1 5 4 0 1 -0 5 0 -1
Height
5815 5820 5825 5829 5835 5837 5842 5846 5849 5851 5855 5858 5861 5863 5866 5869 5872 5877 5877 5879 5880 5881 5882 5883 5884 5884 5884 5885 5886 5886 5887 5887 5887 5887 5887 5887 5887 5887 5886 5886 5886 5887 5887 5887 5886 5886 5886 5885 5886
5808 5814 5819 5823 5827 5834 5839 5841 5844 5847 5851 5854 5857 5860 5862 5866 5869 5873 5874 5876 5877 5879 5880 5882 5882 5881 5882 5882 5882 5883 5882 5883 5883 5883 5883 5883 5883 5883 5883 5883 5883 5882 5883 5883 5883 5883 5883 5883 5883
5801 5807 5812 5816 5821 5831 5835 5836 5839 5844 5847 5849 5853 5856 5859 5863 5866 5870 5871 5873 5874 5876 5876 5878 5878 5879 5880 5880 5880 5880 5880 5880 5880 5880 5880 5880 5880 5880 5880 5880 5880 5880 5880 5880 5880 5880 5880 5880 5879
5794 5800 5806 5810 5820 5827 5829 5831 5835 5839 5841 5845 5849 5853 5857 5859 5863 5866 5868 5870 5871 5873 5874 5876 5876 5877 5877 5878 5878 5878 5878 5878 5878 5878 5878 5878 5878 5878 5878 5878 5878 5878 5877 5877 5876 5876 5877 5876 5876
5786 5793 5798 5806 5817 5823 5823 5825 5831 5835 5837 5842 5845 5849 5852 5856 5859 5862 5864 5866 5868 5869 5870 5871 5872 5873 5874 5874 5875 5875 5875 5874 5875 5875 5875 5875 5875 5874 5874 5874 5874 5874 5874 5873 5873 5873 5872 5873 5873
5779 5785 5792 5802 5814 5817 5818 5820 5826 5830 5833 5837 5841 5844 5849 5853 5854 5857 5859 5861 5862 5864 5865 5866 5867 5868 5869 5870 5871 5871 5871 5871 5871 5871 5872 5872 5872 5872 5871 5871 5871 5870 5870 5870 5869 5869 5869 5869 5869
5773 5780 5788 5800 5807 5810 5813 5813 5820 5824 5828 5831 5836 5840 5846 5846 5849 5851 5854 5856 5858 5858 5859 5861 5862 5863 5864 5865 5866 5867 5867 5868 5868 5867 5868 5868 5868 5868 5868 5867 5867 5866 5866 5866 5865 5865 5865 5865 5865
5767 5773 5780 5792 5800 5807 5808 5808 5814 5820 5824 5827 5832 5835 5839 5840 5842 5845 5848 5850 5852 5853 5854 5854 5856 5857 5858 5860 5861 5862 5862 5863 5864 5864 5864 5864 5864 5863 5863 5863 5863 5863 5862 5862 5862 5861 5861 5862 5862
5761 5767 5776 5788 5796 5802 5804 5805 5809 5815 5820 5824 5827 5831 5834 5835 5837 5840 5842 5844 5846 5846 5848 5849 5850 5852 5853 5854 5856 5856 5857 5858 5859 5859 5859 5859 5859 5860 5859 5859 5859 5859 5859 5858 5858 5857 5857 5858 5858
5753 5762 5774 5783 5789 5795 5798 5800 5804 5811 5815 5819 5821 5825 5828 5830 5832 5835 5838 5839 5840 5841 5842 5844 5846 5847 5848 5849 5850 5851 5851 5852 5853 5854 5854 5855 5855 5856 5856 5855 5855 5855 5855 5854 5854 5853 5853 5853 5853
5750 5759 5766 5774 5780 5786 5791 5794 5798 5804 5810 5813 5815 5820 5823 5826 5829 5831 5832 5834 5834 5835 5838 5840 5841 5842 5843 5844 5845 5845 5845 5847 5847 5848 5848 5849 5850 5850 5851 5851 5850 5851 5851 5850 5850 5850 5849 5848 5848
5744 5752 5760 5767 5771 5779 5785 5788 5792 5798 5804 5806 5810 5815 5819 5821 5824 5827 5827 5828 5830 5832 5833 5835 5836 5836 5837 5838 5839 5839 5840 5840 5841 5842 5843 5843 5843 5844 5845 5845 5845 5846 5845 5846 5845 5845 5845 5844 5843
5738 5746 5753 5759 5765 5772 5779 5783 5786 5793 5795 5800 5804 5809 5812 5815 5818 5821 5822 5824 5826 5827 5828 5829 5829 5830 5831 5832 5832 5834 5835 5835 5835 5835 5836 5837 5838 5838 5839 5839 5840 5839 5839 5840 5839 5839 5839 5838 5838
5732 5739 5746 5752 5758 5765 5772 5777 5779 5788 5787 5792 5797 5801 5804 5809 5811 5814 5817 5818 5820 5820 5821 5821 5823 5824 5824 5825 5826 5827 5828 5828 5829 5830 5830 5832 5832 5832 5833 5833 5834 5833 5833 5834 5833 5833 5833 5832 5832
5724 5731 5738 5746 5752 5758 5764 5771 5776 5778 5780 5785 5789 5794 5797 5802 5805 5809 5810 5813 5816 5816 5815 5816 5815 5816 5817 5819 5820 5821 5822 5822 5823 5824 5825 5826 5826 5826 5826 5827 5827 5826 5826 5826 5826 5826 5826 5826 5826
5718 5725 5733 5741 5747 5752 5756 5766 5768 5769 5774 5779 5782 5787 5791 5795 5799 5802 5805 5807 5808 5809 5810 5809 5809 5809 5810 5811 5813 5814 5815 5815 5816 5817 5818 5820 5820 5819 5819 5819 5819 5819 5818 5818 5819 5819 5819 5820 5820
5712 5721 5729 5736 5741 5745 5751 5757 5760 5763 5768 5774 5777 5780 5785 5788 5789 5793 5795 5797 5799 5801 5803 5803 5803 5803 5803 5804 5804 5805 5806 5807 5809 5811 5811 5812 5812 5810 5811 5811 5811 5811 5811 5811 5812 5812 5812 5813 5813
5709 5717 5723 5729 5735 5739 5745 5750 5754 5758 5763 5768 5772 5775 5777 5781 5783 5782 5785 5788 5790 5792 5794 5797 5797 5797 5796 5796 5795 5796 5798 5799 5800 5802 5803 5803 5803 5803 5803 5803 5803 5803 5804 5804 5803 5804 5804 5804 5804
5703 5709 5716 5722 5728 5734 5739 5744 5750 5753 5757 5761 5765 5768 5770 5771 5773 5775 5777 5779 5781 5784 5786 5788 5790 5790 5789 5788 5788 5789 5790 5790 5790 5791 5793 5792 5793 5794 5795 5795 5795 5796 5795 5795 5795 5796 5796 5797 5797
5697 5704 5711 5717 5723 5728 5732 5738 5745 5746 5750 5752 5757 5762 5764 5764 5765 5767 5770 5772 5773 5775 5776 5778 5780 5781 5782 5781 5780 5780 5780 5781 5781 5781 5782 5783 5784 5785 5786 5787 5787 5787 5786 5786 5786 5787 5788 5788 5789
5692 5699 5706 5713 5717 5722 5727 5731 5738 5740 5742 5746 5750 5754 5756 5757 5758 5760 5761 5762 5764 5765 5766 5768 5768 5769 5770 5771 5771 5771 5771 5773 5772 5772 5772 5773 5772 5772 5773 5775 5776 5777 5776 5777 5776 5778 5779 5779 5780
5688 5694 5700 5706 5711 5716 5721 5725 5732 5733 5736 5740 5743 5746 5748 5750 5751 5751 5752 5752 5753 5754 5756 5757 5758 5758 5758 5758 5759 5760 5760 5761 5761 5762 5760 5760 5760 5761 5761 5763 5765 5766 5766 5766 5767 5767 5770 5770 5770
5683 5688 5694 5700 5705 5710 5715 5718 5725 5725 5728 5733 5736 5737 5739 5740 5741 5742 5742 5742 5743 5745 5745 5746 5748 5747 5746 5747 5747 5747 5749 5750 5749 5749 5748 5747 5747 5749 5750 5751 5753 5755 5755 5756 5758 5757 5759 5759 5759
5676 5683 5689 5694 5699 5704 5708 5711 5717 5720 5721 5724 5727 5730 5731 5732 5732 5734 5735 5735 5735 5735 5735 5735 5735 5736 5735 5735 5735 5735 5734 5734 5735 5736 5735 5735 5735 5735 5737 5738 5741 5743 5745 5745 5747 5747 5748 5748 5749
5672 5678 5683 5688 5692 5698 5701 5704 5709 5713 5714 5716 5719 5721 5723 5723 5724 5725 5725 5726 5726 5725 5725 5724 5724 5722 5722 5722 5721 5721 5720 5719 5720 5720 5720 5721 5723 5724 5724 5724 5726 5728 5731 5731 5733 5734 5736 5737 5738
5670 5675 5679 5682 5687 5692 5696 5699 5702 5706 5707 5709 5711 5713 5715 5716 5717 5717 5717 5718 5718 5717 5715 5714 5712 5710 5709 5707 5705 5704 5703 5703 5703 5703 5703 5705 5708 5709 5709 5710 5712 5714 5717 5718 5719 5721 5723 5724 5724
5668 5672 5675 5678 5682 5686 5691 5694 5696 5699 5701 5703 5705 5708 5709 5709 5710 5710 5709 5709 5708 5707 5705 5703 5701 5698 5695 5693 5691 5688 5686 5684 5684 5683 5683 5685 5689 5692 5695 5697 5698 5701 5704 5705 5707 5709 5711 5712 5712
5664 5668 5671 5674 5678 5682 5685 5688 5691 5693 5695 5698 5700 5701 5702 5703 5703 5703 5701 5700 5699 5698 5695 5691 5688 5685 5681 5679 5676 5673 5669 5666 5664 5662 5662 5663 5666 5670 5675 5680 5684 5688 5691 5694 5695 5697 5698 5700 5700
5661 5664 5667 5670 5674 5677 5681 5684 5686 5688 5691 5694 5694 5695 5696 5697 5697 5695 5693 5691 5689 5686 5684 5681 5677 5674 5670 5666 5662 5658 5653 5647 5643 5641 5640 5640 5642 5646 5652 5658 5666 5672 5677 5680 5682 5685 5687 5690 5688
5657 5661 5664 5667 5672 5674 5677 5680 5681 5683 5687 5687 5688 5689 5690 5690 5689 5687 5684 5681 5678 5675 5672 5668 5665 5662 5657 5653 5646 5639 5632 5626 5621 5617 5616 5616 5618 5624 5631 5637 5645 5654 5660 5665 5670 5672 5674 5677 5677